User: anonymous   Login
Location: Unspecified
(0.0000°N, 0.0000°E)
Time: 07:50:10
(UTC+00:00)
Language:

GONETS M 11 (M21) - Orbit

View from above orbital plane
View from above orbital plane
View from above satellite
View from above satellite

Ground track
Ground track

The orbit data is extracted from the following two-line orbital elements,

1 40552U 15020A   17328.40980836 +.00000048 +00000-0 +27563-3 0  9991
2 40552 082.4863 179.1697 0016616 345.0592 014.9991 12.42871155120346
Epoch (UTC): 24 November 2017 09:50:07
Eccentricity: 0.0016616
inclination: 82.4863°
perigee height: 1481 km
apogee height: 1507 km
right ascension of ascending node: 179.1697°
argument of perigee: 345.0592°
revolutions per day: 12.42871155
mean anomaly at epoch: 14.9991°
orbit number at epoch: 12034

The dashed part of the orbit path shows where the satellite is in the earth's shadow,  

DLR